Terug naar catalogus

FLOCK 4Q 16

ActiefWetenschapSSO
NORAD 58271·PAYLOAD·🇺🇸 United States

Gelanceerd Nov 11, 2023 vanaf Vandenberg Space Force Base

Loading…

Volgende Passages (komende 24 uur)

TLE

VersSource: CelesTrak SupGP

Epoch: Sep 14, 2026, 06:45 UTC

1 58271C 23174R   26257.28134259  .00028512  00000+0  45898-3 0  2577
2 58271  97.3773 347.6546 0006005 196.1896 268.2293 15.52945266    15

Volg FLOCK 4Q 16 in realtime met AllMySat

Download on the App Store